SL-12 R/B(2), 36118

Orbit data source: Space-Track

SL-12 R/B(2), 36118 is space debris in MEO originally from a launch on Mon, 14 Dec 2009 UTC launched from the Tyuratam Missile And Space Complex (TTMTR). Debris objects in space refer to the collection of defunct objects orbiting the Earth. Examples of debris include non-operational satellites, rocket bodies, and fragments generated from explosions, collisions, or faulty payload assembly.

Loading next visibility...
Identifier
36118, 2009-070H
Orbit
MEO
Country
Flag of CISCIS
Related business
Manufacturer
RKKE
Mission
Spacecraft
Bus & Motor
BLOK DM2, 11D58M
Mass
2,440 kg wet, 2,440 kg dry
Launch date (UTC)
2009-12-14 (17 years ago)
Launch vehicle
Unknown
Launch site
Tyuratam Missile And Space Complex (TTMTR)
Object type
Payload
Rocket body
Debris
Shape & HBR
Cyl, 3.5 m
Radar Cross Section
26.008 m², Large (>1 m²)

Expand to show TLE details & history
Last TLE update: 4 days ago

TLE from 4 days ago
0 SL-12 R/B(2)
1 36118U 09070H   26169.29113866 -.00000027  00000-0  00000+0 0  9994
2 36118  65.0116  70.2653 0028281 204.3699 340.9257  2.13352878128614
Epoch: 2026-06-18T06:59Z
TLE epoch observation values (Epoch: 2026-06-18T06:59:14.380Z)
Latitude
-4.72818°
Longitude
-118.86344°
Altitude
19,043.036 km
Speed
3.965 km/s
True Right ascension
16h 49m 55s
True Declination
-4° 43' 13"
Sunlit
Object was in daylight at epoch
Visualization orbit readout
Latitude
Unknown
Longitude
Unknown
Altitude
Unknown
Speed
Unknown
Apparent Right ascension
Unknown
Apparent Declination
Unknown
Sunlit
N/A
Visualization observer readout
Local Sidereal Time
23:20:26
Azimuth
Unknown
Elevation
Unknown
Doppler factor
Unknown
Orbital elements
Apogee altitude
19,181.583 km
Perigee altitude
19,037.42 km
Semi-major axis
25,487.638 km
Eccentricity
0.00283
Inclination
65.0116°
RAAN
70.2653°
Arg. of periapsis
204.3699°
True anomaly
340.81944°
Mean anomaly
340.9257°
Eccentric anomaly
340.8726°
Mean motion
0.53339 °/min
Orbital period
674.92 mins
BSTAR
0
Loading maneuver chart data...
Computing Atmospheric mass density...

Documentation

Showing up to 5 results
|